Hourly Weather Bolshoy Monok

Today, 28 July, Wednesday

Time Temperature Precipitation Wind Pressure Humidity
00:00 +18°C° 0 mm 1 mps 720 mmHg 87%
01:00 +18°C° 0.7 mm 1 mps 720 mmHg 90%
02:00 +16°C° 0.7 mm 1 mps 720 mmHg 94%
03:00 +16°C° 0.7 mm 1 mps 720 mmHg 97%
04:00 +16°C° 2.2 mm 1 mps 720 mmHg 97%
05:00 +15°C° 2.2 mm 1 mps 721 mmHg 98%
06:00 +15°C° 0 mm 1 mps 721 mmHg 98%
07:00 +15°C° 2.5 mm 1 mps 721 mmHg 98%
08:00 +15°C° 2.5 mm 1 mps 721 mmHg 97%
09:00 +14°C° 2.5 mm 0 mps 721 mmHg 97%
10:00 +15°C° 0.3 mm 1 mps 722 mmHg 96%
11:00 +15°C° 0.3 mm 1 mps 722 mmHg 95%
12:00 +16°C° 0 mm 1 mps 722 mmHg 93%
13:00 +16°C° 0.1 mm 1 mps 722 mmHg 89%
14:00 +18°C° 0.1 mm 1 mps 722 mmHg 85%
15:00 +18°C° 0.1 mm 2 mps 722 mmHg 80%
16:00 +18°C° 0.1 mm 2 mps 722 mmHg 79%
17:00 +18°C° 0.1 mm 2 mps 722 mmHg 78%
18:00 +18°C° 0 mm 2 mps 722 mmHg 78%
19:00 +16°C° 0 mm 1 mps 722 mmHg 83%
20:00 +15°C° 0 mm 1 mps 722 mmHg 88%
21:00 +13°C° 0 mm 1 mps 722 mmHg 93%
22:00 +12°C° 0 mm 0 mps 722 mmHg 93%
23:00 +12°C° 0 mm 0 mps 723 mmHg 93%

Tomorrow, 29 July, Thursday

Time Temperature Precipitation Wind Pressure Humidity
00:00 +12°C° 0 mm 0 mps 723 mmHg 92%
01:00 +12°C° 0 mm 0 mps 723 mmHg 91%
02:00 +12°C° 0 mm 0 mps 723 mmHg 90%
03:00 +13°C° 0 mm 0 mps 722 mmHg 89%
04:00 +13°C° 0 mm 0 mps 723 mmHg 89%
05:00 +13°C° 0 mm 0 mps 723 mmHg 89%
06:00 +13°C° 0 mm 0 mps 723 mmHg 88%
07:00 +15°C° 0 mm 0 mps 723 mmHg 81%
08:00 +16°C° 0 mm 0 mps 723 mmHg 74%
09:00 +20°C° 0 mm 1 mps 723 mmHg 67%
10:00 +21°C° 0 mm 1 mps 722 mmHg 63%
11:00 +21°C° 0 mm 2 mps 722 mmHg 59%
12:00 +23°C° 0 mm 2 mps 722 mmHg 55%
13:00 +23°C° 0 mm 2 mps 722 mmHg 54%
14:00 +24°C° 0 mm 2 mps 722 mmHg 53%
15:00 +24°C° 0 mm 3 mps 722 mmHg 53%
16:00 +22°C° 0 mm 3 mps 722 mmHg 58%
17:00 +21°C° 0 mm 3 mps 722 mmHg 62%
18:00 +21°C° 0 mm 3 mps 722 mmHg 67%
19:00 +19°C° 0 mm 2 mps 721 mmHg 74%
20:00 +17°C° 0 mm 2 mps 721 mmHg 81%
21:00 +15°C° 0 mm 1 mps 721 mmHg 88%
22:00 +14°C° 0 mm 1 mps 721 mmHg 89%
23:00 +14°C° 0 mm 1 mps 721 mmHg 90%

Day after tomorrow, 30 July, Friday

Time Temperature Precipitation Wind Pressure Humidity
00:00 +13°C° 0 mm 1 mps 721 mmHg 92%
01:00 +13°C° 0 mm 1 mps 721 mmHg 92%
02:00 +13°C° 0 mm 1 mps 721 mmHg 92%
03:00 +13°C° 0 mm 1 mps 721 mmHg 92%
04:00 +12°C° 0 mm 0 mps 721 mmHg 90%
05:00 +13°C° 0 mm 0 mps 721 mmHg 88%
06:00 +13°C° 0 mm 0 mps 722 mmHg 86%
07:00 +16°C° 0 mm 1 mps 722 mmHg 79%
08:00 +19°C° 0 mm 1 mps 722 mmHg 72%
09:00 +20°C° 0 mm 1 mps 722 mmHg 65%
10:00 +20°C° 0 mm 2 mps 722 mmHg 62%
11:00 +21°C° 0 mm 2 mps 722 mmHg 59%
12:00 +23°C° 0 mm 2 mps 722 mmHg 56%
13:00 +24°C° 0 mm 2 mps 722 mmHg 56%
14:00 +24°C° 0 mm 1 mps 722 mmHg 57%
15:00 +24°C° 0 mm 1 mps 722 mmHg 57%
16:00 +23°C° 0.3 mm 1 mps 723 mmHg 65%
17:00 +22°C° 0.3 mm 1 mps 723 mmHg 73%
18:00 +21°C° 0.3 mm 1 mps 723 mmHg 82%
19:00 +19°C° 0.3 mm 1 mps 724 mmHg 84%
20:00 +17°C° 0.3 mm 2 mps 724 mmHg 87%
21:00 +16°C° 0.3 mm 2 mps 725 mmHg 89%
22:00 +16°C° 0.1 mm 2 mps 725 mmHg 90%
23:00 +15°C° 0.1 mm 2 mps 725 mmHg 91%

31 July, Saturday

Time Temperature Precipitation Wind Pressure Humidity
00:00 +14°C° 0.1 mm 2 mps 725 mmHg 92%
01:00 +14°C° 0 mm 2 mps 725 mmHg 93%
02:00 +13°C° 0 mm 2 mps 726 mmHg 93%
03:00 +13°C° 0 mm 1 mps 726 mmHg 93%
04:00 +13°C° 0 mm 1 mps 726 mmHg 93%
05:00 +14°C° 0 mm 1 mps 727 mmHg 92%
06:00 +14°C° 0 mm 1 mps 727 mmHg 92%
07:00 +16°C° 0 mm 1 mps 727 mmHg 85%
08:00 +19°C° 0 mm 1 mps 727 mmHg 77%
09:00 +21°C° 0 mm 1 mps 727 mmHg 70%
10:00 +22°C° 0.1 mm 1 mps 727 mmHg 66%
11:00 +23°C° 0.1 mm 1 mps 727 mmHg 62%
12:00 +24°C° 0.1 mm 2 mps 726 mmHg 57%
13:00 +24°C° 0.1 mm 2 mps 726 mmHg 56%
14:00 +25°C° 0.1 mm 2 mps 726 mmHg 54%
15:00 +25°C° 0.1 mm 2 mps 726 mmHg 52%
16:00 +24°C° 0 mm 2 mps 726 mmHg 56%
17:00 +24°C° 0 mm 2 mps 726 mmHg 61%
18:00 +23°C° 0 mm 2 mps 725 mmHg 66%
19:00 +20°C° 0 mm 2 mps 725 mmHg 73%
20:00 +19°C° 0 mm 1 mps 726 mmHg 80%
21:00 +15°C° 0 mm 1 mps 726 mmHg 87%
22:00 +15°C° 0 mm 1 mps 726 mmHg 88%
23:00 +14°C° 0 mm 1 mps 725 mmHg 89%

1 August, Sunday

Time Temperature Precipitation Wind Pressure Humidity
00:00 +14°C° 0 mm 1 mps 725 mmHg 91%
01:00 +13°C° 0 mm 1 mps 725 mmHg 91%
02:00 +13°C° 0 mm 1 mps 725 mmHg 92%
03:00 +13°C° 0 mm 1 mps 725 mmHg 92%
04:00 +13°C° 0 mm 1 mps 725 mmHg 90%
05:00 +14°C° 0 mm 1 mps 725 mmHg 88%
06:00 +15°C° 0 mm 1 mps 726 mmHg 86%
07:00 +18°C° 0 mm 1 mps 725 mmHg 78%
08:00 +20°C° 0 mm 1 mps 725 mmHg 69%
09:00 +23°C° 0 mm 1 mps 725 mmHg 61%
10:00 +24°C° 0 mm 1 mps 725 mmHg 56%
11:00 +25°C° 0 mm 1 mps 725 mmHg 51%
12:00 +26°C° 0 mm 1 mps 724 mmHg 46%
13:00 +26°C° 0 mm 1 mps 724 mmHg 44%
14:00 +26°C° 0 mm 1 mps 724 mmHg 43%
15:00 +27°C° 0 mm 1 mps 724 mmHg 41%
16:00 +26°C° 0 mm 1 mps 724 mmHg 47%
17:00 +25°C° 0 mm 1 mps 724 mmHg 52%
18:00 +22°C° 0 mm 0 mps 724 mmHg 58%
19:00 +23°C° 0 mm 1 mps 724 mmHg 60%
20:00 +21°C° 0 mm 1 mps 724 mmHg 61%
21:00 +20°C° 0 mm 1 mps 724 mmHg 63%
22:00 +19°C° 0 mm 1 mps 724 mmHg 69%
23:00 +16°C° 0 mm 1 mps 724 mmHg 74%

2 August, Monday

Time Temperature Precipitation Wind Pressure Humidity
00:00 +15°C° 0 mm 1 mps 724 mmHg 79%
01:00 +14°C° 0 mm 1 mps 724 mmHg 80%
02:00 +14°C° 0 mm 1 mps 724 mmHg 82%
03:00 +13°C° 0 mm 1 mps 724 mmHg 84%
04:00 +14°C° 0 mm 1 mps 724 mmHg 81%
05:00 +15°C° 0 mm 1 mps 724 mmHg 79%
06:00 +16°C° 0 mm 1 mps 724 mmHg 77%
07:00 +19°C° 0 mm 1 mps 724 mmHg 70%
08:00 +21°C° 0 mm 1 mps 724 mmHg 63%
09:00 +22°C° 0 mm 0 mps 724 mmHg 56%
10:00 +25°C° 0 mm 1 mps 723 mmHg 52%
11:00 +26°C° 0 mm 1 mps 723 mmHg 47%
12:00 +28°C° 0 mm 1 mps 723 mmHg 43%
13:00 +28°C° 0 mm 1 mps 722 mmHg 42%
14:00 +28°C° 0 mm 1 mps 722 mmHg 41%
15:00 +29°C° 0 mm 1 mps 722 mmHg 40%
16:00 +28°C° 0 mm 1 mps 722 mmHg 47%
17:00 +27°C° 0 mm 1 mps 722 mmHg 55%
18:00 +27°C° 0 mm 1 mps 722 mmHg 62%
19:00 +24°C° 0 mm 1 mps 722 mmHg 67%
20:00 +22°C° 0 mm 1 mps 722 mmHg 72%
21:00 +19°C° 0 mm 1 mps 722 mmHg 78%
22:00 +19°C° 0 mm 1 mps 722 mmHg 79%
23:00 +18°C° 0 mm 1 mps 722 mmHg 81%
Show more

We Need Your Consent

Meteoprog and our Service Providers may store and access personal data such as cookies, device identifiers or other similar technologies on your device and process such data to personalise content and ads, as well as provide social media features and to analyse the traffic.

  • Store and/or access information on your device

    Cookies, device identifiers or other information can be stored or accessed on your device for the purposes indicated above.

  • Personalised ads and content, ad and content measurement, audience insights, and products development

    Ads and content can be personalised based on a profile. More data can be added to better personalise ads and content. Ad and content performance can be measured. Insights about the audience who saw the ads and content can be derived. Such data can be used to develop or improve user’s experience, systems and software.

By clicking ‘I Agree’ you will allow the use of indicated cookies, device identifiers, web beacons or other similar technologies. Your settings can be changed in the browser on your device.

For certain purposes, legitimate interests may be relied on, rather than consent. You can read more about this in our Privacy and Cookie Policy.